This is the latest recevied weather packets stored in our database for station/object N6GPM. If no packets are shown the sender has not sent any weather packets the latest 10 day(s).
| Time | Temp. | Humidity | Pressure | Rain* | Wind** | Luminosity | Snow |
|---|---|---|---|---|---|---|---|
| 1788566048 | 28.33° C | 39% | 1015.9 hPa | 0 mm | - | 371 W/m² | - |
| 1788565742 | 28.89° C | 38% | 1016.2 hPa | 0 mm | - | 392 W/m² | - |
| 1788565437 | 28.33° C | 37% | 1016.2 hPa | 0 mm | - | 411 W/m² | - |
| 1788565133 | 28.89° C | 37% | 1016 hPa | 0 mm | - | 432 W/m² | - |
| 1788564828 | 28.89° C | 36% | 1015.9 hPa | 0 mm | - | 452 W/m² | - |
| 1788564525 | 28.89° C | 36% | 1015.9 hPa | 0 mm | - | 475 W/m² | - |
| 1788564221 | 29.44° C | 35% | 1016 hPa | 0 mm | - | 498 W/m² | - |
| 1788563916 | 29.44° C | 34% | 1016 hPa | 0 mm | - | 519 W/m² | - |
| 1788563611 | 28.89° C | 35% | 1016 hPa | 0 mm | - | 539 W/m² | - |
| 1788563307 | 28.89° C | 35% | 1016 hPa | 0 mm | - | 557 W/m² | - |
| 1788563005 | 28.89° C | 35% | 1016.1 hPa | 0 mm | - | 574 W/m² | - |
| 1788562700 | 29.44° C | 34% | 1016 hPa | 0 mm | - | 597 W/m² | - |
| 1788562398 | 29.44° C | 33% | 1016.1 hPa | 0 mm | - | 616 W/m² | - |
| 1788562123 | 29.44° C | 34% | 1016 hPa | 0 mm | - | 633 W/m² | - |
| 1788561794 | 28.89° C | 33% | 1016.4 hPa | 0 mm | - | 650 W/m² | - |
| 1788561492 | 28.89° C | 34% | 1016.3 hPa | 0 mm | - | 670 W/m² | - |
| 1788561188 | 29.44° C | 34% | 1016 hPa | 0 mm | - | 688 W/m² | - |
| 1788560884 | 29.44° C | 34% | 1016.5 hPa | 0 mm | - | 703 W/m² | - |
| 1788560578 | 29.44° C | 33% | 1016.4 hPa | 0 mm | - | 721 W/m² | - |
| 1788560273 | 28.89° C | 34% | 1016.5 hPa | 0 mm | - | 736 W/m² | - |
| 1788559968 | 28.89° C | 34% | 1016.4 hPa | 0 mm | - | 754 W/m² | - |
| 1788559663 | 28.89° C | 34% | 1016.4 hPa | 0 mm | - | 768 W/m² | - |
| 1788559362 | 29.44° C | 34% | 1016.4 hPa | 0 mm | - | 785 W/m² | - |
| 1788559057 | 29.44° C | 33% | 1016.4 hPa | 0 mm | - | 794 W/m² | - |
| 1788558747 | 30° C | 31% | 1016.7 hPa | 0 mm | - | 811 W/m² | - |
* Rain latest hour (hover to see other rain measurements)
** Current wind speed in m/s (hover to see current wind gust speed)